Time,TemperatureF,DewpointF,PressureIn,WindDirection,WindDirectionDegrees,WindSpeedMPH,WindSpeedGustMPH,Humidity,HourlyPrecipIn,Conditions,Clouds,dailyrainin,SoftwareType,DateUTC
2013-04-12 00:00:00,38.4,34.6,30.12,NNE,22,0.0,0.0,86,0.00,,,0.00,Wunderground v.1.15,2013-04-12 04:00:00,
2013-04-12 00:02:00,38.3,34.5,30.12,NNE,22,0.0,1.0,86,0.00,,,0.00,Wunderground v.1.15,2013-04-12 04:02:00,
2013-04-12 00:04:00,38.3,34.5,30.12,NNE,22,0.0,1.0,86,0.00,,,0.00,Wunderground v.1.15,2013-04-12 04:04:00,
2013-04-12 00:09:00,38.3,34.5,30.12,NNE,22,0.0,0.0,86,0.00,,,0.01,Wunderground v.1.15,2013-04-12 04:09:00,
2013-04-12 00:12:00,38.3,34.5,30.12,NNE,22,0.0,0.0,86,0.00,,,0.01,Wunderground v.1.15,2013-04-12 04:12:00,
2013-04-12 00:19:00,38.3,34.8,30.13,NNE,22,0.0,0.0,87,0.00,,,0.01,Wunderground v.1.15,2013-04-12 04:19:00,
2013-04-12 00:25:00,38.2,34.7,30.13,NNE,22,0.0,1.0,87,0.04,,,0.02,Wunderground v.1.15,2013-04-12 04:25:00,
2013-04-12 00:31:00,38.1,34.6,30.13,NNE,22,1.0,1.0,87,0.04,,,0.02,Wunderground v.1.15,2013-04-12 04:31:00,
2013-04-12 00:37:00,38.1,34.6,30.13,NNE,22,0.0,1.0,87,0.04,,,0.02,Wunderground v.1.15,2013-04-12 04:37:00,
2013-04-12 00:44:00,38.0,34.8,30.12,NNE,22,1.0,1.0,88,0.00,,,0.02,Wunderground v.1.15,2013-04-12 04:44:00,
2013-04-12 00:49:00,37.9,34.4,30.12,NNE,26,0.0,1.0,87,0.00,,,0.02,Wunderground v.1.15,2013-04-12 04:49:00,
2013-04-12 00:54:00,37.8,34.3,30.12,NNE,26,1.0,2.0,87,0.00,,,0.02,Wunderground v.1.15,2013-04-12 04:54:00,
2013-04-12 01:00:00,37.9,34.4,30.12,NNE,26,1.0,1.0,87,0.00,,,0.02,Wunderground v.1.15,2013-04-12 05:00:00,
2013-04-12 01:06:00,37.8,34.6,30.12,NE,46,1.0,2.0,88,0.00,,,0.02,Wunderground v.1.15,2013-04-12 05:06:00,
2013-04-12 01:12:00,37.8,34.6,30.13,NNE,19,1.0,3.0,88,0.00,,,0.03,Wunderground v.1.15,2013-04-12 05:12:00,
2013-04-12 01:19:00,37.7,34.5,30.13,ENE,69,1.0,1.0,88,0.00,,,0.03,Wunderground v.1.15,2013-04-12 05:19:00,
2013-04-12 01:25:00,37.6,34.4,30.12,NNE,25,2.0,2.0,88,0.04,,,0.04,Wunderground v.1.15,2013-04-12 05:25:00,
2013-04-12 01:32:00,37.4,34.2,30.11,East,80,1.0,2.0,88,0.15,,,0.06,Wunderground v.1.15,2013-04-12 05:32:00,
2013-04-12 01:39:00,37.3,34.1,30.13,ENE,61,1.0,1.0,88,0.15,,,0.08,Wunderground v.1.15,2013-04-12 05:39:00,
2013-04-12 01:45:00,37.3,34.1,30.10,NE,44,1.0,3.0,88,0.11,,,0.09,Wunderground v.1.15,2013-04-12 05:45:00,
2013-04-12 01:51:00,37.3,34.4,30.11,ENE,78,1.0,2.0,89,0.10,,,0.10,Wunderground v.1.15,2013-04-12 05:51:00,
2013-04-12 01:56:00,37.2,34.3,30.11,ENE,76,2.0,3.0,89,0.10,,,0.11,Wunderground v.1.15,2013-04-12 05:56:00,
2013-04-12 02:02:00,37.2,34.3,30.11,ENE,76,1.0,1.0,89,0.06,,,0.11,Wunderground v.1.15,2013-04-12 06:02:00,
2013-04-12 02:07:00,37.2,34.3,30.12,ENE,76,1.0,2.0,89,0.04,,,0.11,Wunderground v.1.15,2013-04-12 06:07:00,
2013-04-12 02:14:00,37.2,34.3,30.11,East,92,1.0,2.0,89,0.00,,,0.11,Wunderground v.1.15,2013-04-12 06:14:00,
2013-04-12 02:20:00,37.3,34.4,30.11,East,91,1.0,2.0,89,0.00,,,0.11,Wunderground v.1.15,2013-04-12 06:20:00,
2013-04-12 02:26:00,37.4,34.5,30.11,ENE,76,1.0,2.0,89,0.00,,,0.11,Wunderground v.1.15,2013-04-12 06:26:00,
2013-04-12 02:31:00,37.4,34.5,30.11,ENE,76,1.0,1.0,89,0.00,,,0.11,Wunderground v.1.15,2013-04-12 06:31:00,
2013-04-12 02:36:00,37.4,34.5,30.11,East,84,1.0,1.0,89,0.00,,,0.12,Wunderground v.1.15,2013-04-12 06:36:00,
2013-04-12 02:42:00,37.4,34.5,30.11,ENE,65,1.0,2.0,89,0.00,,,0.12,Wunderground v.1.15,2013-04-12 06:42:00,
2013-04-12 02:47:00,37.5,34.6,30.11,ENE,68,1.0,2.0,89,0.00,,,0.12,Wunderground v.1.15,2013-04-12 06:47:00,
2013-04-12 02:54:00,37.6,34.7,30.11,East,90,2.0,6.0,89,0.00,,,0.12,Wunderground v.1.15,2013-04-12 06:54:00,
2013-04-12 02:59:00,37.6,34.7,30.11,ENE,64,1.0,1.0,89,0.00,,,0.12,Wunderground v.1.15,2013-04-12 06:59:00,
2013-04-12 03:04:00,37.7,34.8,30.11,NE,52,1.0,2.0,89,0.00,,,0.12,Wunderground v.1.15,2013-04-12 07:04:00,
2013-04-12 03:10:00,37.7,34.8,30.11,ENE,78,2.0,3.0,89,0.00,,,0.12,Wunderground v.1.15,2013-04-12 07:10:00,
2013-04-12 03:15:00,37.7,34.8,30.12,ENE,77,2.0,3.0,89,0.00,,,0.12,Wunderground v.1.15,2013-04-12 07:15:00,
2013-04-12 03:20:00,37.7,34.8,30.12,ENE,77,1.0,2.0,89,0.00,,,0.12,Wunderground v.1.15,2013-04-12 07:20:00,
2013-04-12 03:26:00,37.7,34.8,30.12,ENE,68,2.0,2.0,89,0.00,,,0.12,Wunderground v.1.15,2013-04-12 07:26:00,
2013-04-12 03:31:00,37.7,34.8,30.12,ENE,68,2.0,2.0,89,0.00,,,0.12,Wunderground v.1.15,2013-04-12 07:31:00,
2013-04-12 03:37:00,37.7,34.8,30.12,ENE,70,1.0,2.0,89,0.00,,,0.12,Wunderground v.1.15,2013-04-12 07:37:00,
2013-04-12 03:42:00,37.8,34.8,30.12,ENE,70,1.0,2.0,89,0.00,,,0.12,Wunderground v.1.15,2013-04-12 07:42:00,
2013-04-12 03:47:00,37.8,34.8,30.11,East,79,1.0,2.0,89,0.00,,,0.12,Wunderground v.1.15,2013-04-12 07:47:00,
2013-04-12 03:52:00,37.8,34.8,30.11,ENE,74,2.0,2.0,89,0.00,,,0.12,Wunderground v.1.15,2013-04-12 07:52:00,
2013-04-12 03:59:00,37.8,34.8,30.12,ENE,65,2.0,2.0,89,0.00,,,0.12,Wunderground v.1.15,2013-04-12 07:59:00,
2013-04-12 04:04:00,37.8,34.8,30.12,ENE,71,1.0,2.0,89,0.00,,,0.12,Wunderground v.1.15,2013-04-12 08:04:00,
2013-04-12 04:10:00,37.8,34.8,30.12,ENE,71,2.0,2.0,89,0.00,,,0.12,Wunderground v.1.15,2013-04-12 08:10:00,
2013-04-12 04:16:00,37.8,34.8,30.12,East,80,2.0,5.0,89,0.00,,,0.12,Wunderground v.1.15,2013-04-12 08:16:00,
2013-04-12 04:21:00,37.8,34.8,30.11,ENE,59,2.0,2.0,89,0.00,,,0.12,Wunderground v.1.15,2013-04-12 08:21:00,
2013-04-12 04:27:00,37.9,34.9,30.11,NE,56,1.0,2.0,89,0.00,,,0.12,Wunderground v.1.15,2013-04-12 08:27:00,
2013-04-12 04:32:00,37.9,34.9,30.11,East,93,1.0,2.0,89,0.00,,,0.12,Wunderground v.1.15,2013-04-12 08:32:00,
2013-04-12 04:37:00,37.9,34.9,30.11,ENE,59,2.0,4.0,89,0.00,,,0.12,Wunderground v.1.15,2013-04-12 08:37:00,
2013-04-12 04:42:00,37.9,34.9,30.11,NE,44,2.0,5.0,89,0.00,,,0.12,Wunderground v.1.15,2013-04-12 08:42:00,
2013-04-12 04:49:00,37.8,34.8,30.10,SE,134,2.0,2.0,89,0.00,,,0.12,Wunderground v.1.15,2013-04-12 08:49:00,
2013-04-12 04:55:00,37.9,34.9,30.10,ENE,72,2.0,2.0,89,0.00,,,0.12,Wunderground v.1.15,2013-04-12 08:55:00,
2013-04-12 05:00:00,37.9,34.9,30.10,East,101,2.0,2.0,89,0.00,,,0.12,Wunderground v.1.15,2013-04-12 09:00:00,
2013-04-12 05:06:00,37.8,34.8,30.11,East,80,2.0,3.0,89,0.00,,,0.12,Wunderground v.1.15,2013-04-12 09:06:00,
2013-04-12 05:12:00,37.8,34.8,30.11,East,83,3.0,5.0,89,0.00,,,0.12,Wunderground v.1.15,2013-04-12 09:12:00,
2013-04-12 05:17:00,37.8,34.8,30.11,East,99,3.0,8.0,89,0.00,,,0.12,Wunderground v.1.15,2013-04-12 09:17:00,
2013-04-12 05:22:00,37.8,34.8,30.11,ESE,122,3.0,3.0,89,0.00,,,0.12,Wunderground v.1.15,2013-04-12 09:22:00,
2013-04-12 05:27:00,37.8,34.8,30.11,East,99,2.0,3.0,89,0.00,,,0.12,Wunderground v.1.15,2013-04-12 09:27:00,
2013-04-12 05:32:00,37.8,34.8,30.11,ENE,67,2.0,3.0,89,0.00,,,0.12,Wunderground v.1.15,2013-04-12 09:32:00,
2013-04-12 05:37:00,37.7,34.8,30.10,SE,124,3.0,3.0,89,0.00,,,0.12,Wunderground v.1.15,2013-04-12 09:37:00,
2013-04-12 05:42:00,37.7,34.8,30.10,East,86,2.0,3.0,89,0.00,,,0.12,Wunderground v.1.15,2013-04-12 09:42:00,
2013-04-12 05:49:00,37.7,34.8,30.10,ENE,74,3.0,3.0,89,0.00,,,0.12,Wunderground v.1.15,2013-04-12 09:49:00,
2013-04-12 05:54:00,37.6,34.7,30.10,East,88,3.0,3.0,89,0.00,,,0.12,Wunderground v.1.15,2013-04-12 09:54:00,
2013-04-12 05:59:00,37.5,34.6,30.10,ENE,74,3.0,3.0,89,0.00,,,0.12,Wunderground v.1.15,2013-04-12 09:59:00,
2013-04-12 06:04:00,37.5,34.6,30.10,ENE,75,2.0,4.0,89,0.00,,,0.12,Wunderground v.1.15,2013-04-12 10:04:00,
2013-04-12 06:10:00,37.4,34.5,30.11,ENE,67,2.0,4.0,89,0.00,,,0.12,Wunderground v.1.15,2013-04-12 10:10:00,
2013-04-12 06:16:00,37.4,34.2,30.11,East,84,3.0,4.0,88,0.00,,,0.12,Wunderground v.1.15,2013-04-12 10:16:00,
2013-04-12 06:22:00,37.4,34.2,30.11,East,101,3.0,6.0,88,0.00,,,0.12,Wunderground v.1.15,2013-04-12 10:22:00,
2013-04-12 06:29:00,37.3,34.1,30.10,East,88,3.0,5.0,88,0.00,,,0.12,Wunderground v.1.15,2013-04-12 10:29:00,
2013-04-12 06:35:00,37.3,33.8,30.11,East,79,3.0,5.0,87,0.00,,,0.12,Wunderground v.1.15,2013-04-12 10:35:00,
2013-04-12 06:42:00,37.4,33.6,30.11,East,96,2.0,3.0,86,0.00,,,0.12,Wunderground v.1.15,2013-04-12 10:42:00,
2013-04-12 06:48:00,37.4,33.6,30.12,ENE,65,2.0,2.0,86,0.00,,,0.12,Wunderground v.1.15,2013-04-12 10:48:00,
2013-04-12 06:54:00,37.4,33.3,30.12,ESE,111,3.0,3.0,85,0.00,,,0.12,Wunderground v.1.15,2013-04-12 10:54:00,
2013-04-12 07:00:00,37.4,33.6,30.11,East,89,3.0,3.0,86,0.00,,,0.12,Wunderground v.1.15,2013-04-12 11:00:00,
2013-04-12 07:05:00,37.5,33.4,30.11,East,80,4.0,6.0,85,0.00,,,0.12,Wunderground v.1.15,2013-04-12 11:05:00,
2013-04-12 07:10:00,37.5,33.4,30.11,East,92,3.0,3.0,85,0.00,,,0.12,Wunderground v.1.15,2013-04-12 11:10:00,
2013-04-12 07:16:00,37.6,33.5,30.12,East,90,2.0,3.0,85,0.00,,,0.12,Wunderground v.1.15,2013-04-12 11:16:00,
2013-04-12 07:22:00,37.6,33.5,30.12,East,96,2.0,5.0,85,0.00,,,0.12,Wunderground v.1.15,2013-04-12 11:22:00,
2013-04-12 07:27:00,37.6,33.5,30.12,East,90,3.0,5.0,85,0.00,,,0.12,Wunderground v.1.15,2013-04-12 11:27:00,
2013-04-12 07:32:00,37.6,33.8,30.11,ENE,78,3.0,5.0,86,0.00,,,0.12,Wunderground v.1.15,2013-04-12 11:32:00,
2013-04-12 07:37:00,37.7,33.9,30.11,SE,134,4.0,5.0,86,0.00,,,0.12,Wunderground v.1.15,2013-04-12 11:37:00,
2013-04-12 07:42:00,37.7,33.9,30.10,East,80,4.0,7.0,86,0.00,,,0.12,Wunderground v.1.15,2013-04-12 11:42:00,
2013-04-12 07:49:00,37.8,34.0,30.10,East,87,4.0,4.0,86,0.00,,,0.12,Wunderground v.1.15,2013-04-12 11:49:00,
2013-04-12 07:53:00,37.9,34.1,30.11,SE,138,3.0,4.0,86,0.00,,,0.12,Wunderground v.1.15,2013-04-12 11:53:00,
2013-04-12 07:59:00,38.0,34.2,30.10,East,79,3.0,7.0,86,0.00,,,0.12,Wunderground v.1.15,2013-04-12 11:59:00,
2013-04-12 08:04:00,38.1,34.0,30.10,ENE,75,4.0,8.0,85,0.00,,,0.12,Wunderground v.1.15,2013-04-12 12:04:00,
2013-04-12 08:10:00,38.1,33.4,30.10,ENE,74,5.0,10.0,83,0.00,,,0.12,Wunderground v.1.15,2013-04-12 12:10:00,
2013-04-12 08:15:00,38.3,33.6,30.10,ESE,117,5.0,10.0,83,0.00,,,0.12,Wunderground v.1.15,2013-04-12 12:15:00,
2013-04-12 08:21:00,38.3,33.3,30.10,East,91,5.0,8.0,82,0.00,,,0.12,Wunderground v.1.15,2013-04-12 12:21:00,
2013-04-12 08:26:00,38.3,33.3,30.09,East,83,4.0,8.0,82,0.00,,,0.12,Wunderground v.1.15,2013-04-12 12:26:00,
2013-04-12 08:32:00,38.4,33.1,30.09,ESE,104,4.0,5.0,81,0.00,,,0.12,Wunderground v.1.15,2013-04-12 12:32:00,
2013-04-12 08:37:00,38.4,32.8,30.06,East,94,5.0,10.0,80,0.00,,,0.12,Wunderground v.1.15,2013-04-12 12:37:00,
2013-04-12 08:42:00,38.5,33.2,30.09,SE,137,6.0,8.0,81,0.00,,,0.12,Wunderground v.1.15,2013-04-12 12:42:00,
2013-04-12 08:49:00,38.7,32.7,30.09,ENE,72,4.0,12.0,79,0.00,,,0.12,Wunderground v.1.15,2013-04-12 12:49:00,
2013-04-12 08:54:00,38.7,32.4,30.08,East,101,6.0,12.0,78,0.00,,,0.12,Wunderground v.1.15,2013-04-12 12:54:00,
2013-04-12 09:00:00,38.8,32.2,30.08,East,85,6.0,10.0,77,0.00,,,0.12,Wunderground v.1.15,2013-04-12 13:00:00,
2013-04-12 09:06:00,38.9,32.0,30.08,ESE,116,6.0,10.0,76,0.00,,,0.12,Wunderground v.1.15,2013-04-12 13:06:00,
2013-04-12 09:12:00,38.9,32.0,30.08,ESE,105,6.0,6.0,76,0.00,,,0.12,Wunderground v.1.15,2013-04-12 13:12:00,
2013-04-12 09:17:00,38.9,32.0,30.08,East,88,6.0,6.0,76,0.00,,,0.12,Wunderground v.1.15,2013-04-12 13:17:00,
2013-04-12 09:24:00,38.8,31.9,30.08,East,98,5.0,7.0,76,0.00,,,0.12,Wunderground v.1.15,2013-04-12 13:24:00,
2013-04-12 09:29:00,38.7,31.8,30.07,East,94,6.0,10.0,76,0.00,,,0.12,Wunderground v.1.15,2013-04-12 13:29:00,
2013-04-12 09:35:00,38.6,31.7,30.06,East,99,7.0,10.0,76,0.00,,,0.12,Wunderground v.1.15,2013-04-12 13:35:00,
2013-04-12 09:41:00,38.7,31.8,30.06,East,94,7.0,12.0,76,0.00,,,0.12,Wunderground v.1.15,2013-04-12 13:41:00,
2013-04-12 09:47:00,38.7,31.8,30.05,ESE,102,7.0,12.0,76,0.00,,,0.12,Wunderground v.1.15,2013-04-12 13:47:00,
2013-04-12 09:52:00,38.7,31.5,30.06,East,98,7.0,8.0,75,0.00,,,0.12,Wunderground v.1.15,2013-04-12 13:52:00,
2013-04-12 09:57:00,38.7,31.8,30.06,East,86,5.0,8.0,76,0.00,,,0.12,Wunderground v.1.15,2013-04-12 13:57:00,
2013-04-12 10:02:00,38.7,31.8,30.06,East,86,4.0,10.0,76,0.00,,,0.12,Wunderground v.1.15,2013-04-12 14:02:00,
2013-04-12 10:07:00,38.8,31.9,30.06,ESE,103,4.0,10.0,76,0.00,,,0.12,Wunderground v.1.15,2013-04-12 14:07:00,
2013-04-12 10:12:00,38.8,31.9,30.05,ENE,68,5.0,7.0,76,0.00,,,0.12,Wunderground v.1.15,2013-04-12 14:12:00,
2013-04-12 10:19:00,38.8,31.6,30.05,East,93,7.0,13.0,75,0.00,,,0.12,Wunderground v.1.15,2013-04-12 14:19:00,
2013-04-12 10:25:00,38.9,31.6,30.05,ESE,102,7.0,13.0,75,0.00,,,0.12,Wunderground v.1.15,2013-04-12 14:25:00,
2013-04-12 10:30:00,38.9,32.0,30.04,ESE,119,6.0,6.0,76,0.00,,,0.12,Wunderground v.1.15,2013-04-12 14:30:00,
2013-04-12 10:36:00,38.7,32.7,30.03,ESE,116,5.0,7.0,79,0.00,,,0.12,Wunderground v.1.15,2013-04-12 14:36:00,
2013-04-12 10:42:00,38.3,32.0,30.02,East,79,7.0,9.0,78,0.00,,,0.12,Wunderground v.1.15,2013-04-12 14:42:00,
2013-04-12 10:49:00,38.1,32.5,30.01,ENE,66,7.0,7.0,80,0.00,,,0.12,Wunderground v.1.15,2013-04-12 14:49:00,
2013-04-12 10:54:00,38.1,32.5,30.01,ENE,71,6.0,7.0,80,0.00,,,0.12,Wunderground v.1.15,2013-04-12 14:54:00,
2013-04-12 11:00:00,38.2,32.3,30.02,ESE,103,5.0,10.0,79,0.00,,,0.12,Wunderground v.1.15,2013-04-12 15:00:00,
2013-04-12 11:06:00,38.2,31.9,30.02,East,82,5.0,10.0,78,0.00,,,0.12,Wunderground v.1.15,2013-04-12 15:06:00,
2013-04-12 11:12:00,38.2,32.3,30.02,ESE,108,6.0,13.0,79,0.00,,,0.12,Wunderground v.1.15,2013-04-12 15:12:00,
2013-04-12 11:17:00,38.3,32.7,30.02,ESE,114,6.0,13.0,80,0.00,,,0.12,Wunderground v.1.15,2013-04-12 15:17:00,
2013-04-12 11:24:00,38.1,33.4,30.01,East,101,5.0,7.0,83,0.12,,,0.14,Wunderground v.1.15,2013-04-12 15:24:00,
2013-04-12 11:30:00,37.8,33.4,30.01,ESE,111,5.0,5.0,84,0.08,,,0.14,Wunderground v.1.15,2013-04-12 15:30:00,
2013-04-12 11:36:00,37.6,33.5,30.01,ESE,104,5.0,5.0,85,0.05,,,0.15,Wunderground v.1.15,2013-04-12 15:36:00,
2013-04-12 11:42:00,37.5,33.7,30.01,East,95,4.0,7.0,86,0.09,,,0.16,Wunderground v.1.15,2013-04-12 15:42:00,
2013-04-12 11:49:00,37.4,33.6,30.01,East,92,4.0,4.0,86,0.09,,,0.16,Wunderground v.1.15,2013-04-12 15:49:00,
2013-04-12 11:54:00,37.4,33.9,30.00,East,84,5.0,8.0,87,0.06,,,0.17,Wunderground v.1.15,2013-04-12 15:54:00,
2013-04-12 12:00:00,37.3,33.8,30.00,East,97,5.0,5.0,87,0.11,,,0.18,Wunderground v.1.15,2013-04-12 16:00:00,
2013-04-12 12:05:00,37.3,33.8,30.01,East,93,5.0,5.0,87,0.09,,,0.19,Wunderground v.1.15,2013-04-12 16:05:00,
2013-04-12 12:10:00,37.3,34.1,30.00,East,95,3.0,10.0,88,0.12,,,0.20,Wunderground v.1.15,2013-04-12 16:10:00,
2013-04-12 12:15:00,37.2,34.0,30.00,East,82,4.0,10.0,88,0.14,,,0.21,Wunderground v.1.15,2013-04-12 16:15:00,
2013-04-12 12:21:00,37.0,33.8,30.00,SSE,158,3.0,7.0,88,0.19,,,0.24,Wunderground v.1.15,2013-04-12 16:21:00,
2013-04-12 12:27:00,36.9,33.7,30.00,ESE,103,4.0,7.0,88,0.12,,,0.25,Wunderground v.1.15,2013-04-12 16:27:00,
2013-04-12 12:32:00,36.8,33.6,29.99,East,86,4.0,7.0,88,0.24,,,0.27,Wunderground v.1.15,2013-04-12 16:32:00,
2013-04-12 12:37:00,36.7,33.8,30.00,ESE,113,4.0,7.0,89,0.28,,,0.29,Wunderground v.1.15,2013-04-12 16:37:00,
2013-04-12 12:42:00,36.7,33.8,29.99,East,92,3.0,8.0,89,0.21,,,0.31,Wunderground v.1.15,2013-04-12 16:42:00,
2013-04-12 12:49:00,36.8,33.9,29.99,ESE,105,4.0,4.0,89,0.23,,,0.33,Wunderground v.1.15,2013-04-12 16:49:00,
2013-04-12 12:54:00,36.8,33.9,29.99,East,82,3.0,4.0,89,0.18,,,0.34,Wunderground v.1.15,2013-04-12 16:54:00,
2013-04-12 13:00:00,36.8,33.9,30.00,East,88,3.0,3.0,89,0.13,,,0.35,Wunderground v.1.15,2013-04-12 17:00:00,
2013-04-12 13:05:00,36.9,34.0,30.00,East,92,2.0,3.0,89,0.13,,,0.37,Wunderground v.1.15,2013-04-12 17:05:00,
2013-04-12 13:11:00,36.9,34.0,30.00,SE,144,2.0,3.0,89,0.16,,,0.38,Wunderground v.1.15,2013-04-12 17:11:00,
2013-04-12 13:17:00,36.9,34.0,29.99,ESE,119,2.0,4.0,89,0.13,,,0.40,Wunderground v.1.15,2013-04-12 17:17:00,
2013-04-12 13:22:00,36.9,34.0,29.98,East,97,3.0,5.0,89,0.12,,,0.41,Wunderground v.1.15,2013-04-12 17:22:00,
2013-04-12 13:28:00,37.0,34.1,29.98,ESE,115,3.0,4.0,89,0.09,,,0.42,Wunderground v.1.15,2013-04-12 17:28:00,
2013-04-12 13:34:00,36.9,34.0,29.98,ESE,115,3.0,5.0,89,0.09,,,0.42,Wunderground v.1.15,2013-04-12 17:34:00,
2013-04-12 13:40:00,36.7,33.8,29.97,SE,132,4.0,4.0,89,0.05,,,0.42,Wunderground v.1.15,2013-04-12 17:40:00,
2013-04-12 13:47:00,36.8,33.9,29.97,East,89,4.0,4.0,89,0.00,,,0.42,Wunderground v.1.15,2013-04-12 17:47:00,
2013-04-12 13:54:00,36.8,33.9,29.96,ENE,76,3.0,5.0,89,0.00,,,0.42,Wunderground v.1.15,2013-04-12 17:54:00,
2013-04-12 14:00:00,36.7,33.8,29.97,East,96,5.0,9.0,89,0.00,,,0.42,Wunderground v.1.15,2013-04-12 18:00:00,
2013-04-12 14:05:00,36.5,33.6,29.95,ENE,71,5.0,9.0,89,0.00,,,0.42,Wunderground v.1.15,2013-04-12 18:05:00,
2013-04-12 14:10:00,36.3,33.4,29.96,ESE,110,5.0,6.0,89,0.00,,,0.42,Wunderground v.1.15,2013-04-12 18:10:00,
2013-04-12 14:15:00,36.4,33.5,29.96,ESE,103,4.0,6.0,89,0.00,,,0.42,Wunderground v.1.15,2013-04-12 18:15:00,
2013-04-12 14:25:00,36.5,33.6,29.96,ESE,102,3.0,5.0,89,0.00,,,0.43,Wunderground v.1.15,2013-04-12 18:25:00,
2013-04-12 15:26:00,36.3,33.4,29.90,ENE,74,4.0,6.0,89,0.00,,,0.46,Wunderground v.1.15,2013-04-12 19:26:00,
2013-04-12 15:27:00,36.4,33.5,29.90,ESE,103,4.0,6.0,89,0.00,,,0.46,Wunderground v.1.15,2013-04-12 19:27:00,
2013-04-12 15:29:00,36.4,33.5,29.89,NE,53,4.0,5.0,89,0.00,,,0.46,Wunderground v.1.15,2013-04-12 19:29:00,
2013-04-12 15:34:00,36.3,33.4,29.89,ENE,61,4.0,8.0,89,0.00,,,0.46,Wunderground v.1.15,2013-04-12 19:34:00,
2013-04-12 15:40:00,36.3,33.4,29.89,South,169,4.0,4.0,89,0.00,,,0.46,Wunderground v.1.15,2013-04-12 19:40:00,
2013-04-12 15:45:00,36.4,33.5,29.89,ESE,113,4.0,4.0,89,0.00,,,0.46,Wunderground v.1.15,2013-04-12 19:45:00,
2013-04-12 15:51:00,36.5,33.6,29.89,East,92,4.0,5.0,89,0.00,,,0.46,Wunderground v.1.15,2013-04-12 19:51:00,
2013-04-12 15:56:00,36.5,33.6,29.88,ESE,109,4.0,7.0,89,0.00,,,0.46,Wunderground v.1.15,2013-04-12 19:56:00,
2013-04-12 16:02:00,36.5,33.6,29.88,ENE,71,3.0,4.0,89,0.00,,,0.46,Wunderground v.1.15,2013-04-12 20:02:00,
2013-04-12 16:07:00,36.7,33.8,29.88,East,90,3.0,6.0,89,0.00,,,0.46,Wunderground v.1.15,2013-04-12 20:07:00,
2013-04-12 16:14:00,36.6,33.7,29.88,ENE,73,3.0,6.0,89,0.00,,,0.46,Wunderground v.1.15,2013-04-12 20:14:00,
2013-04-12 16:19:00,36.6,33.7,29.87,East,98,4.0,10.0,89,0.00,,,0.46,Wunderground v.1.15,2013-04-12 20:19:00,
2013-04-12 16:24:00,36.6,33.7,29.88,ESE,113,5.0,10.0,89,0.00,,,0.46,Wunderground v.1.15,2013-04-12 20:24:00,
2013-04-12 16:30:00,36.7,33.8,29.88,East,90,4.0,5.0,89,0.00,,,0.46,Wunderground v.1.15,2013-04-12 20:30:00,
2013-04-12 16:36:00,36.7,33.8,29.88,East,86,3.0,5.0,89,0.00,,,0.46,Wunderground v.1.15,2013-04-12 20:36:00,
2013-04-12 16:41:00,36.7,33.8,29.87,East,84,3.0,5.0,89,0.00,,,0.46,Wunderground v.1.15,2013-04-12 20:41:00,
2013-04-12 16:47:00,36.7,33.8,29.86,East,88,3.0,5.0,89,0.00,,,0.46,Wunderground v.1.15,2013-04-12 20:47:00,
2013-04-12 16:52:00,36.7,33.8,29.86,East,97,3.0,5.0,89,0.00,,,0.46,Wunderground v.1.15,2013-04-12 20:52:00,
2013-04-12 16:59:00,36.6,33.7,29.86,ENE,74,3.0,3.0,89,0.00,,,0.47,Wunderground v.1.15,2013-04-12 20:59:00,
2013-04-12 17:04:00,36.5,33.6,29.86,East,80,3.0,3.0,89,0.06,,,0.48,Wunderground v.1.15,2013-04-12 21:04:00,
2013-04-12 17:10:00,36.5,33.6,29.86,East,85,3.0,3.0,89,0.06,,,0.48,Wunderground v.1.15,2013-04-12 21:10:00,
2013-04-12 17:15:00,36.5,33.6,29.85,East,86,3.0,3.0,89,0.05,,,0.48,Wunderground v.1.15,2013-04-12 21:15:00,
2013-04-12 17:22:00,36.5,33.6,29.86,ENE,61,3.0,3.0,89,0.05,,,0.49,Wunderground v.1.15,2013-04-12 21:22:00,
2013-04-12 17:29:00,36.4,33.5,29.85,East,87,4.0,4.0,89,0.05,,,0.49,Wunderground v.1.15,2013-04-12 21:29:00,
2013-04-12 17:34:00,36.5,33.6,29.86,ENE,75,4.0,5.0,89,0.00,,,0.49,Wunderground v.1.15,2013-04-12 21:34:00,
2013-04-12 17:40:00,36.5,33.6,29.85,ENE,75,3.0,5.0,89,0.00,,,0.49,Wunderground v.1.15,2013-04-12 21:40:00,
2013-04-12 17:46:00,36.4,33.7,29.84,ENE,72,3.0,7.0,90,0.00,,,0.50,Wunderground v.1.15,2013-04-12 21:46:00,
2013-04-12 17:51:00,36.4,33.7,29.84,East,101,4.0,5.0,90,0.00,,,0.50,Wunderground v.1.15,2013-04-12 21:51:00,
2013-04-12 17:56:00,36.3,33.6,29.84,ENE,67,4.0,6.0,90,0.00,,,0.50,Wunderground v.1.15,2013-04-12 21:56:00,
2013-04-12 18:02:00,36.2,33.5,29.84,NE,49,4.0,4.0,90,0.00,,,0.50,Wunderground v.1.15,2013-04-12 22:02:00,
2013-04-12 18:07:00,36.3,33.6,29.84,ENE,78,2.0,4.0,90,0.00,,,0.50,Wunderground v.1.15,2013-04-12 22:07:00,
2013-04-12 18:12:00,36.4,33.7,29.84,East,90,2.0,3.0,90,0.00,,,0.50,Wunderground v.1.15,2013-04-12 22:12:00,
2013-04-12 18:18:00,36.3,33.6,29.83,East,79,2.0,5.0,90,0.00,,,0.50,Wunderground v.1.15,2013-04-12 22:18:00,
2013-04-12 18:24:00,36.4,33.7,29.83,East,79,2.0,5.0,90,0.00,,,0.51,Wunderground v.1.15,2013-04-12 22:24:00,
2013-04-12 18:29:00,36.4,33.7,29.83,ENE,63,2.0,2.0,90,0.00,,,0.51,Wunderground v.1.15,2013-04-12 22:29:00,
2013-04-12 18:35:00,36.4,33.7,29.83,ENE,78,2.0,5.0,90,0.00,,,0.51,Wunderground v.1.15,2013-04-12 22:35:00,
2013-04-12 18:41:00,36.4,33.7,29.82,SSE,159,2.0,3.0,90,0.00,,,0.51,Wunderground v.1.15,2013-04-12 22:41:00,
2013-04-12 18:46:00,36.4,33.7,29.82,ENE,71,3.0,5.0,90,0.00,,,0.51,Wunderground v.1.15,2013-04-12 22:46:00,
2013-04-12 18:52:00,36.4,33.7,29.82,ESE,103,4.0,5.0,90,0.00,,,0.51,Wunderground v.1.15,2013-04-12 22:52:00,
2013-04-12 18:57:00,36.5,33.8,29.82,East,101,3.0,7.0,90,0.00,,,0.51,Wunderground v.1.15,2013-04-12 22:57:00,
2013-04-12 19:04:00,36.5,33.8,29.81,ESE,105,2.0,5.0,90,0.00,,,0.51,Wunderground v.1.15,2013-04-12 23:04:00,
2013-04-12 19:10:00,36.6,33.9,29.81,East,84,3.0,3.0,90,0.00,,,0.51,Wunderground v.1.15,2013-04-12 23:10:00,
2013-04-12 19:16:00,36.6,33.9,29.81,ENE,71,3.0,3.0,90,0.00,,,0.51,Wunderground v.1.15,2013-04-12 23:16:00,
2013-04-12 19:21:00,36.6,33.9,29.81,ENE,65,2.0,9.0,90,0.00,,,0.51,Wunderground v.1.15,2013-04-12 23:21:00,
2013-04-12 19:27:00,36.7,34.0,29.81,NE,55,4.0,9.0,90,0.00,,,0.51,Wunderground v.1.15,2013-04-12 23:27:00,
2013-04-12 19:32:00,36.7,34.0,29.80,ENE,68,3.0,5.0,90,0.00,,,0.51,Wunderground v.1.15,2013-04-12 23:32:00,
2013-04-12 19:37:00,36.8,34.1,29.80,ENE,64,3.0,5.0,90,0.00,,,0.51,Wunderground v.1.15,2013-04-12 23:37:00,
2013-04-12 19:42:00,36.8,34.1,29.80,SE,129,3.0,6.0,90,0.00,,,0.52,Wunderground v.1.15,2013-04-12 23:42:00,
2013-04-12 19:48:00,36.8,34.1,29.80,East,90,3.0,5.0,90,0.00,,,0.52,Wunderground v.1.15,2013-04-12 23:48:00,
2013-04-12 19:54:00,36.9,34.2,29.79,NNE,31,3.0,5.0,90,0.00,,,0.52,Wunderground v.1.15,2013-04-12 23:54:00,
2013-04-12 20:00:00,36.9,34.2,29.80,NW,322,3.0,3.0,90,0.00,,,0.52,Wunderground v.1.15,2013-04-13 00:00:00,
2013-04-12 20:05:00,36.9,34.2,29.81,NE,36,2.0,6.0,90,0.00,,,0.52,Wunderground v.1.15,2013-04-13 00:05:00,
2013-04-12 20:10:00,37.0,34.3,29.80,ENE,61,3.0,3.0,90,0.00,,,0.52,Wunderground v.1.15,2013-04-13 00:10:00,
2013-04-12 20:15:00,37.0,34.3,29.80,North,10,3.0,6.0,90,0.00,,,0.52,Wunderground v.1.15,2013-04-13 00:15:00,
2013-04-12 20:21:00,37.0,34.3,29.79,NE,42,3.0,3.0,90,0.00,,,0.52,Wunderground v.1.15,2013-04-13 00:21:00,
2013-04-12 20:26:00,37.0,34.3,29.80,ENE,78,2.0,3.0,90,0.00,,,0.52,Wunderground v.1.15,2013-04-13 00:26:00,
2013-04-12 20:31:00,37.0,34.3,29.80,NE,49,3.0,6.0,90,0.00,,,0.52,Wunderground v.1.15,2013-04-13 00:31:00,
2013-04-12 20:36:00,36.9,34.2,29.80,ENE,61,4.0,6.0,90,0.00,,,0.52,Wunderground v.1.15,2013-04-13 00:36:00,
2013-04-12 20:42:00,37.0,34.3,29.80,East,100,3.0,5.0,90,0.00,,,0.52,Wunderground v.1.15,2013-04-13 00:42:00,
2013-04-12 20:47:00,37.0,34.3,29.80,ENE,57,3.0,7.0,90,0.00,,,0.52,Wunderground v.1.15,2013-04-13 00:47:00,
2013-04-12 20:54:00,37.0,34.3,29.80,NE,36,4.0,7.0,90,0.00,,,0.52,Wunderground v.1.15,2013-04-13 00:54:00,
2013-04-12 20:59:00,37.0,34.3,29.80,North,11,3.0,3.0,90,0.00,,,0.52,Wunderground v.1.15,2013-04-13 00:59:00,
2013-04-12 21:04:00,37.0,34.3,29.79,ENE,59,3.0,3.0,90,0.00,,,0.52,Wunderground v.1.15,2013-04-13 01:04:00,
2013-04-12 21:10:00,37.0,34.3,29.79,NNE,26,3.0,6.0,90,0.00,,,0.52,Wunderground v.1.15,2013-04-13 01:10:00,
2013-04-12 21:16:00,36.9,34.2,29.79,NNE,33,3.0,6.0,90,0.00,,,0.52,Wunderground v.1.15,2013-04-13 01:16:00,
2013-04-12 21:21:00,36.8,34.1,29.78,NE,48,4.0,5.0,90,0.00,,,0.52,Wunderground v.1.15,2013-04-13 01:21:00,
2013-04-12 21:27:00,36.8,34.1,29.79,NNE,19,3.0,6.0,90,0.00,,,0.52,Wunderground v.1.15,2013-04-13 01:27:00,
2013-04-12 21:34:00,36.8,34.1,29.79,NNE,26,3.0,8.0,90,0.00,,,0.52,Wunderground v.1.15,2013-04-13 01:34:00,
2013-04-12 21:40:00,36.8,34.1,29.79,NW,310,3.0,3.0,90,0.00,,,0.52,Wunderground v.1.15,2013-04-13 01:40:00,
2013-04-12 21:45:00,36.8,34.1,29.79,ENE,60,3.0,4.0,90,0.00,,,0.52,Wunderground v.1.15,2013-04-13 01:45:00,
2013-04-12 21:50:00,36.8,34.1,29.79,NE,44,3.0,4.0,90,0.00,,,0.52,Wunderground v.1.15,2013-04-13 01:50:00,
2013-04-12 21:56:00,36.8,34.1,29.79,NNE,32,3.0,4.0,90,0.00,,,0.52,Wunderground v.1.15,2013-04-13 01:56:00,
2013-04-12 22:02:00,36.8,34.1,29.79,NNE,23,3.0,5.0,90,0.00,,,0.52,Wunderground v.1.15,2013-04-13 02:02:00,
2013-04-12 22:07:00,36.8,34.1,29.79,NE,56,3.0,5.0,90,0.00,,,0.52,Wunderground v.1.15,2013-04-13 02:07:00,
2013-04-12 22:12:00,36.8,34.1,29.78,NNE,16,3.0,7.0,90,0.00,,,0.52,Wunderground v.1.15,2013-04-13 02:12:00,
2013-04-12 22:17:00,36.8,34.1,29.78,NNE,13,3.0,7.0,90,0.00,,,0.52,Wunderground v.1.15,2013-04-13 02:17:00,
2013-04-12 22:24:00,36.8,34.1,29.77,ENE,71,3.0,6.0,90,0.00,,,0.52,Wunderground v.1.15,2013-04-13 02:24:00,
2013-04-12 22:29:00,36.8,34.1,29.76,NE,47,3.0,3.0,90,0.00,,,0.53,Wunderground v.1.15,2013-04-13 02:29:00,
2013-04-12 22:35:00,36.8,34.1,29.76,ENE,75,3.0,8.0,90,0.00,,,0.53,Wunderground v.1.15,2013-04-13 02:35:00,
2013-04-12 22:41:00,36.9,34.2,29.77,ENE,59,2.0,3.0,90,0.00,,,0.53,Wunderground v.1.15,2013-04-13 02:41:00,
2013-04-12 22:46:00,36.9,34.2,29.77,NE,43,2.0,4.0,90,0.00,,,0.53,Wunderground v.1.15,2013-04-13 02:46:00,
2013-04-12 22:52:00,37.0,34.3,29.77,ENE,63,2.0,3.0,90,0.00,,,0.53,Wunderground v.1.15,2013-04-13 02:52:00,
2013-04-12 22:59:00,37.0,34.3,29.77,East,82,2.0,3.0,90,0.00,,,0.53,Wunderground v.1.15,2013-04-13 02:59:00,
2013-04-12 23:04:00,37.0,34.3,29.77,ENE,71,2.0,3.0,90,0.00,,,0.53,Wunderground v.1.15,2013-04-13 03:04:00,
2013-04-12 23:09:00,37.0,34.3,29.76,North,9,2.0,4.0,90,0.00,,,0.53,Wunderground v.1.15,2013-04-13 03:09:00,
2013-04-12 23:15:00,37.0,34.3,29.76,ENE,61,3.0,7.0,90,0.00,,,0.53,Wunderground v.1.15,2013-04-13 03:15:00,
2013-04-12 23:20:00,37.1,34.4,29.76,NE,34,4.0,5.0,90,0.00,,,0.53,Wunderground v.1.15,2013-04-13 03:20:00,
2013-04-12 23:27:00,37.1,34.4,29.77,ENE,68,3.0,5.0,90,0.00,,,0.53,Wunderground v.1.15,2013-04-13 03:27:00,
2013-04-12 23:32:00,37.1,34.4,29.77,NE,38,3.0,4.0,90,0.00,,,0.53,Wunderground v.1.15,2013-04-13 03:32:00,
2013-04-12 23:39:00,37.1,34.4,29.77,ESE,115,3.0,3.0,90,0.00,,,0.53,Wunderground v.1.15,2013-04-13 03:39:00,
2013-04-12 23:45:00,37.1,34.4,29.77,ENE,62,3.0,4.0,90,0.00,,,0.53,Wunderground v.1.15,2013-04-13 03:45:00,
2013-04-12 23:51:00,37.1,34.4,29.76,NNE,30,3.0,5.0,90,0.00,,,0.53,Wunderground v.1.15,2013-04-13 03:51:00,
2013-04-12 23:56:00,37.1,34.4,29.76,NE,42,3.0,5.0,90,0.00,,,0.53,Wunderground v.1.15,2013-04-13 03:56:00,